Time,TemperatureF,DewpointF,PressureIn,WindDirection,WindDirectionDegrees,WindSpeedMPH,WindSpeedGustMPH,Humidity,HourlyPrecipIn,Conditions,Clouds,dailyrainin,SolarRadiationWatts/m^2,SoftwareType,DateUTC
2013-07-24 00:00:00,68.6,66.2,29.85,ESE,113,3.0,3.0,92,0.15,,,0.14,0,Wunderground v.1.15,2013-07-24 05:00:00,
2013-07-24 00:06:00,68.6,66.2,29.85,SE,132,2.0,3.0,92,0.06,,,0.00,0,Wunderground v.1.15,2013-07-24 05:06:00,
2013-07-24 00:12:00,68.7,66.6,29.84,SE,142,2.0,3.0,93,0.04,,,0.00,0,Wunderground v.1.15,2013-07-24 05:12:00,
2013-07-24 00:18:00,68.7,66.3,29.84,SE,128,2.0,3.0,92,0.00,,,0.00,0,Wunderground v.1.15,2013-07-24 05:18:00,
2013-07-24 00:24:00,68.6,66.2,29.83,SE,128,1.0,2.0,92,0.00,,,0.00,0,Wunderground v.1.15,2013-07-24 05:24:00,
2013-07-24 00:30:00,68.5,66.1,29.82,SE,128,0.0,0.0,92,0.00,,,0.00,0,Wunderground v.1.15,2013-07-24 05:30:00,
2013-07-24 00:36:00,68.3,66.2,29.82,South,180,0.0,8.0,93,0.00,,,0.00,0,Wunderground v.1.15,2013-07-24 05:36:00,
2013-07-24 00:42:00,68.1,66.0,29.83,South,184,0.0,8.0,93,0.00,,,0.00,0,Wunderground v.1.15,2013-07-24 05:42:00,
2013-07-24 00:48:00,67.8,65.7,29.82,South,190,0.0,8.0,93,0.00,,,0.00,0,Wunderground v.1.15,2013-07-24 05:48:00,
2013-07-24 00:54:00,67.7,65.9,29.81,South,190,0.0,8.0,94,0.00,,,0.00,0,Wunderground v.1.15,2013-07-24 05:54:00,
2013-07-24 01:00:00,67.6,65.8,29.81,South,190,0.0,0.0,94,0.00,,,0.00,0,Wunderground v.1.15,2013-07-24 06:00:00,
2013-07-24 01:06:00,67.5,65.7,29.81,South,190,0.0,0.0,94,0.00,,,0.00,0,Wunderground v.1.15,2013-07-24 06:06:00,
2013-07-24 01:12:00,67.3,65.5,29.81,South,190,0.0,0.0,94,0.00,,,0.00,0,Wunderground v.1.15,2013-07-24 06:12:00,
2013-07-24 01:18:00,67.2,65.4,29.80,South,190,0.0,0.0,94,0.00,,,0.00,0,Wunderground v.1.15,2013-07-24 06:18:00,
2013-07-24 01:24:00,67.1,65.6,29.80,SSW,195,0.0,0.0,95,0.00,,,0.00,0,Wunderground v.1.15,2013-07-24 06:24:00,
2013-07-24 01:30:00,67.0,65.5,29.79,SSW,195,0.0,0.0,95,0.00,,,0.00,0,Wunderground v.1.15,2013-07-24 06:30:00,
2013-07-24 01:36:00,66.8,65.3,29.80,NW,319,1.0,6.0,95,0.00,,,0.00,0,Wunderground v.1.15,2013-07-24 06:36:00,
2013-07-24 01:42:00,66.7,65.2,29.79,NW,319,1.0,2.0,95,0.00,,,0.00,0,Wunderground v.1.15,2013-07-24 06:42:00,
2013-07-24 01:48:00,66.6,65.1,29.80,NW,319,1.0,6.0,95,0.00,,,0.00,0,Wunderground v.1.15,2013-07-24 06:48:00,
2013-07-24 01:54:00,66.6,65.4,29.80,NW,319,0.0,6.0,96,0.00,,,0.00,0,Wunderground v.1.15,2013-07-24 06:54:00,
2013-07-24 02:00:00,66.6,65.4,29.81,NW,319,0.0,0.0,96,0.00,,,0.00,0,Wunderground v.1.15,2013-07-24 07:00:00,
2013-07-24 02:06:00,66.6,65.4,29.80,NW,319,0.0,2.0,96,0.00,,,0.00,0,Wunderground v.1.15,2013-07-24 07:06:00,
2013-07-24 02:12:00,66.5,65.3,29.80,WNW,298,2.0,3.0,96,0.00,,,0.00,0,Wunderground v.1.15,2013-07-24 07:12:00,
2013-07-24 02:18:00,66.5,65.3,29.80,NW,306,2.0,3.0,96,0.00,,,0.00,0,Wunderground v.1.15,2013-07-24 07:18:00,
2013-07-24 02:24:00,66.5,65.3,29.80,NW,306,1.0,2.0,96,0.00,,,0.00,0,Wunderground v.1.15,2013-07-24 07:24:00,
2013-07-24 02:30:00,66.5,65.3,29.80,NNW,335,2.0,2.0,96,0.00,,,0.00,0,Wunderground v.1.15,2013-07-24 07:30:00,
2013-07-24 02:36:00,66.5,65.3,29.81,NW,309,2.0,3.0,96,0.00,,,0.00,0,Wunderground v.1.15,2013-07-24 07:36:00,
2013-07-24 02:42:00,66.6,65.4,29.81,NW,325,2.0,3.0,96,0.00,,,0.00,0,Wunderground v.1.15,2013-07-24 07:42:00,
2013-07-24 02:48:00,66.7,65.5,29.82,NW,320,2.0,3.0,96,0.00,,,0.00,0,Wunderground v.1.15,2013-07-24 07:48:00,
2013-07-24 02:54:00,66.7,65.5,29.82,NNW,333,2.0,3.0,96,0.00,,,0.00,0,Wunderground v.1.15,2013-07-24 07:54:00,
2013-07-24 03:00:00,66.7,65.5,29.81,NNW,333,2.0,2.0,96,0.00,,,0.00,0,Wunderground v.1.15,2013-07-24 08:00:00,
2013-07-24 03:06:00,66.7,65.5,29.82,NNW,333,1.0,2.0,96,0.00,,,0.00,0,Wunderground v.1.15,2013-07-24 08:06:00,
2013-07-24 03:12:00,66.7,65.5,29.82,NNW,333,1.0,1.0,96,0.00,,,0.00,0,Wunderground v.1.15,2013-07-24 08:12:00,
2013-07-24 03:18:00,66.6,65.4,29.81,NNW,333,1.0,1.0,96,0.00,,,0.00,0,Wunderground v.1.15,2013-07-24 08:18:00,
2013-07-24 03:24:00,66.6,65.4,29.81,NNW,333,1.0,2.0,96,0.00,,,0.00,0,Wunderground v.1.15,2013-07-24 08:24:00,
2013-07-24 03:30:00,66.5,65.3,29.81,NNW,333,1.0,1.0,96,0.00,,,0.00,0,Wunderground v.1.15,2013-07-24 08:30:00,
2013-07-24 03:36:00,66.5,65.3,29.81,NNW,333,1.0,4.0,96,0.00,,,0.00,0,Wunderground v.1.15,2013-07-24 08:36:00,
2013-07-24 03:42:00,66.5,65.3,29.81,NNW,333,0.0,4.0,96,0.00,,,0.00,0,Wunderground v.1.15,2013-07-24 08:42:00,
2013-07-24 03:48:00,66.5,65.3,29.81,NNW,333,0.0,4.0,96,0.00,,,0.00,0,Wunderground v.1.15,2013-07-24 08:48:00,
2013-07-24 03:54:00,66.5,65.6,29.82,NNW,333,1.0,4.0,97,0.00,,,0.00,0,Wunderground v.1.15,2013-07-24 08:54:00,
2013-07-24 04:00:00,66.4,65.5,29.82,NNW,333,1.0,1.0,97,0.00,,,0.00,0,Wunderground v.1.15,2013-07-24 09:00:00,
2013-07-24 04:06:00,66.4,65.5,29.82,NNW,333,1.0,3.0,97,0.00,,,0.00,0,Wunderground v.1.15,2013-07-24 09:06:00,
2013-07-24 04:12:00,66.4,65.5,29.82,NW,314,2.0,2.0,97,0.00,,,0.00,0,Wunderground v.1.15,2013-07-24 09:12:00,
2013-07-24 04:18:00,66.4,65.5,29.82,NW,314,1.0,2.0,97,0.00,,,0.00,0,Wunderground v.1.15,2013-07-24 09:18:00,
2013-07-24 04:24:00,66.4,65.5,29.83,NW,315,1.0,1.0,97,0.00,,,0.00,0,Wunderground v.1.15,2013-07-24 09:24:00,
2013-07-24 04:30:00,66.5,65.6,29.83,NW,315,0.0,0.0,97,0.00,,,0.00,0,Wunderground v.1.15,2013-07-24 09:30:00,
2013-07-24 04:36:00,66.5,65.6,29.84,NW,315,0.0,3.0,97,0.00,,,0.00,0,Wunderground v.1.15,2013-07-24 09:36:00,
2013-07-24 04:42:00,66.5,65.6,29.83,NW,315,0.0,3.0,97,0.00,,,0.00,0,Wunderground v.1.15,2013-07-24 09:42:00,
2013-07-24 04:48:00,66.5,65.6,29.83,NW,315,0.0,3.0,97,0.00,,,0.00,0,Wunderground v.1.15,2013-07-24 09:48:00,
2013-07-24 04:54:00,66.4,65.5,29.83,NW,315,0.0,3.0,97,0.00,,,0.00,0,Wunderground v.1.15,2013-07-24 09:54:00,
2013-07-24 05:00:00,66.4,65.5,29.83,NW,315,0.0,0.0,97,0.00,,,0.00,0,Wunderground v.1.15,2013-07-24 10:00:00,
2013-07-24 05:06:00,66.4,65.5,29.84,NW,315,0.0,1.0,97,0.00,,,0.00,0,Wunderground v.1.15,2013-07-24 10:06:00,
2013-07-24 05:12:00,66.4,65.5,29.84,NW,315,0.0,1.0,97,0.00,,,0.00,0,Wunderground v.1.15,2013-07-24 10:12:00,
2013-07-24 05:18:00,66.4,65.5,29.84,NW,315,1.0,1.0,97,0.00,,,0.00,0,Wunderground v.1.15,2013-07-24 10:18:00,
2013-07-24 05:24:00,66.4,65.5,29.84,NW,315,1.0,1.0,97,0.00,,,0.00,0,Wunderground v.1.15,2013-07-24 10:24:00,
2013-07-24 05:30:00,66.4,65.5,29.85,NW,315,0.0,0.0,97,0.00,,,0.00,0,Wunderground v.1.15,2013-07-24 10:30:00,
2013-07-24 05:36:00,66.5,65.6,29.85,NW,315,0.0,3.0,97,0.00,,,0.00,0,Wunderground v.1.15,2013-07-24 10:36:00,
2013-07-24 05:42:00,66.5,65.6,29.85,NW,315,0.0,3.0,97,0.00,,,0.00,0,Wunderground v.1.15,2013-07-24 10:42:00,
2013-07-24 05:48:00,66.6,65.7,29.85,NW,315,0.0,3.0,97,0.00,,,0.00,0,Wunderground v.1.15,2013-07-24 10:48:00,
2013-07-24 05:54:00,66.6,65.7,29.85,NW,315,0.0,3.0,97,0.00,,,0.00,0,Wunderground v.1.15,2013-07-24 10:54:00,
2013-07-24 06:00:00,66.5,65.6,29.85,NW,315,0.0,0.0,97,0.00,,,0.00,5,Wunderground v.1.15,2013-07-24 11:00:00,
2013-07-24 06:06:00,66.4,65.5,29.85,NW,315,0.0,0.0,97,0.00,,,0.00,5,Wunderground v.1.15,2013-07-24 11:06:00,
2013-07-24 06:12:00,66.5,65.6,29.85,NW,315,0.0,1.0,97,0.00,,,0.00,9,Wunderground v.1.15,2013-07-24 11:12:00,
2013-07-24 06:18:00,66.5,65.6,29.85,NW,315,0.0,1.0,97,0.00,,,0.00,12,Wunderground v.1.15,2013-07-24 11:18:00,
2013-07-24 06:24:00,66.6,65.7,29.86,NW,315,0.0,0.0,97,0.00,,,0.00,16,Wunderground v.1.15,2013-07-24 11:24:00,
2013-07-24 06:32:00,66.7,65.8,29.85,NW,315,0.0,2.0,97,0.00,,,0.00,23,Wunderground v.1.15,2013-07-24 11:32:00,
2013-07-24 06:38:00,66.8,66.2,29.85,NW,315,0.0,2.0,98,0.00,,,0.00,30,Wunderground v.1.15,2013-07-24 11:38:00,
2013-07-24 06:44:00,67.0,66.1,29.85,NW,315,0.0,2.0,97,0.00,,,0.00,39,Wunderground v.1.15,2013-07-24 11:44:00,
2013-07-24 06:50:00,67.1,66.2,29.85,NW,315,0.0,2.0,97,0.00,,,0.00,46,Wunderground v.1.15,2013-07-24 11:50:00,
2013-07-24 06:56:00,67.4,66.8,29.85,NW,315,0.0,2.0,98,0.00,,,0.00,56,Wunderground v.1.15,2013-07-24 11:56:00,
2013-07-24 07:02:00,67.7,67.1,29.85,NW,315,0.0,0.0,98,0.00,,,0.00,53,Wunderground v.1.15,2013-07-24 12:02:00,
2013-07-24 07:08:00,68.0,67.4,29.85,NW,315,0.0,0.0,98,0.00,,,0.00,60,Wunderground v.1.15,2013-07-24 12:08:00,
2013-07-24 07:14:00,68.3,67.7,29.86,NW,315,0.0,0.0,98,0.00,,,0.00,67,Wunderground v.1.15,2013-07-24 12:14:00,
2013-07-24 07:20:00,68.5,67.9,29.86,NW,315,0.0,0.0,98,0.00,,,0.00,62,Wunderground v.1.15,2013-07-24 12:20:00,
2013-07-24 07:26:00,68.7,68.1,29.86,NW,315,0.0,0.0,98,0.00,,,0.00,67,Wunderground v.1.15,2013-07-24 12:26:00,
2013-07-24 07:32:00,68.8,68.2,29.86,NW,315,0.0,1.0,98,0.00,,,0.00,72,Wunderground v.1.15,2013-07-24 12:32:00,
2013-07-24 07:38:00,69.0,68.1,29.86,NW,315,0.0,1.0,97,0.00,,,0.00,81,Wunderground v.1.15,2013-07-24 12:38:00,
2013-07-24 07:44:00,69.2,68.3,29.87,NW,315,0.0,1.0,97,0.00,,,0.00,93,Wunderground v.1.15,2013-07-24 12:44:00,
2013-07-24 07:50:00,69.4,68.5,29.87,NW,315,0.0,1.0,97,0.00,,,0.00,100,Wunderground v.1.15,2013-07-24 12:50:00,
2013-07-24 07:56:00,69.5,68.3,29.87,East,91,0.0,1.0,96,0.00,,,0.00,107,Wunderground v.1.15,2013-07-24 12:56:00,
2013-07-24 08:02:00,69.6,68.4,29.87,NNW,339,0.0,0.0,96,0.00,,,0.00,111,Wunderground v.1.15,2013-07-24 13:02:00,
2013-07-24 08:08:00,69.8,68.6,29.87,North,5,0.0,1.0,96,0.00,,,0.00,118,Wunderground v.1.15,2013-07-24 13:08:00,
2013-07-24 08:14:00,69.9,68.4,29.87,NNW,348,0.0,0.0,95,0.00,,,0.00,118,Wunderground v.1.15,2013-07-24 13:14:00,
2013-07-24 08:20:00,70.0,68.5,29.88,NNW,332,1.0,1.0,95,0.00,,,0.00,123,Wunderground v.1.15,2013-07-24 13:20:00,
2013-07-24 08:26:00,70.2,68.7,29.88,NNW,332,0.0,1.0,95,0.00,,,0.00,128,Wunderground v.1.15,2013-07-24 13:26:00,
2013-07-24 08:32:00,70.3,68.5,29.88,North,351,0.0,3.0,94,0.00,,,0.00,98,Wunderground v.1.15,2013-07-24 13:32:00,
2013-07-24 08:38:00,70.3,68.5,29.88,ESE,123,1.0,3.0,94,0.00,,,0.00,104,Wunderground v.1.15,2013-07-24 13:38:00,
2013-07-24 08:44:00,70.3,68.2,29.88,ESE,109,1.0,3.0,93,0.00,,,0.00,141,Wunderground v.1.15,2013-07-24 13:44:00,
2013-07-24 08:50:00,70.3,68.2,29.88,SE,134,1.0,1.0,93,0.00,,,0.00,165,Wunderground v.1.15,2013-07-24 13:50:00,
2013-07-24 08:56:00,70.5,68.4,29.89,SE,138,1.0,3.0,93,0.00,,,0.00,186,Wunderground v.1.15,2013-07-24 13:56:00,
2013-07-24 09:02:00,70.7,68.6,29.89,SSE,166,1.0,2.0,93,0.00,,,0.00,178,Wunderground v.1.15,2013-07-24 14:02:00,
2013-07-24 09:08:00,70.9,68.5,29.89,SE,134,1.0,2.0,92,0.00,,,0.00,178,Wunderground v.1.15,2013-07-24 14:08:00,
2013-07-24 09:14:00,71.0,68.2,29.89,ESE,116,1.0,2.0,91,0.00,,,0.00,183,Wunderground v.1.15,2013-07-24 14:14:00,
2013-07-24 09:20:00,71.1,68.0,29.89,SE,131,1.0,4.0,90,0.00,,,0.00,199,Wunderground v.1.15,2013-07-24 14:20:00,
2013-07-24 09:26:00,71.1,68.3,29.89,NE,35,2.0,4.0,91,0.00,,,0.00,237,Wunderground v.1.15,2013-07-24 14:26:00,
2013-07-24 09:32:00,71.3,68.2,29.89,SE,124,1.0,2.0,90,0.00,,,0.00,204,Wunderground v.1.15,2013-07-24 14:32:00,
2013-07-24 09:38:00,71.5,68.4,29.89,SE,124,1.0,6.0,90,0.00,,,0.00,343,Wunderground v.1.15,2013-07-24 14:38:00,
2013-07-24 09:44:00,71.9,68.8,29.88,SE,137,3.0,6.0,90,0.00,,,0.00,206,Wunderground v.1.15,2013-07-24 14:44:00,
2013-07-24 09:50:00,72.2,68.8,29.88,SE,138,3.0,6.0,89,0.00,,,0.00,418,Wunderground v.1.15,2013-07-24 14:50:00,
2013-07-24 09:56:00,72.5,68.7,29.88,SSE,148,3.0,6.0,88,0.00,,,0.00,380,Wunderground v.1.15,2013-07-24 14:56:00,
2013-07-24 10:02:00,72.8,69.7,29.88,SSE,150,1.0,4.0,90,0.00,,,0.00,244,Wunderground v.1.15,2013-07-24 15:02:00,
2013-07-24 10:08:00,73.2,69.8,29.88,SE,140,2.0,4.0,89,0.00,,,0.00,330,Wunderground v.1.15,2013-07-24 15:08:00,
2013-07-24 10:14:00,73.7,69.9,29.88,SE,131,1.0,5.0,88,0.00,,,0.00,802,Wunderground v.1.15,2013-07-24 15:14:00,
2013-07-24 10:20:00,74.3,69.8,29.89,SE,126,2.0,4.0,86,0.00,,,0.00,842,Wunderground v.1.15,2013-07-24 15:20:00,
2013-07-24 10:26:00,74.4,69.6,29.89,ESE,109,2.0,4.0,85,0.00,,,0.00,165,Wunderground v.1.15,2013-07-24 15:26:00,
2013-07-24 10:32:00,74.3,69.1,29.88,South,173,1.0,7.0,84,0.00,,,0.00,234,Wunderground v.1.15,2013-07-24 15:32:00,
2013-07-24 10:38:00,74.7,69.9,29.88,SSE,167,1.0,7.0,85,0.00,,,0.00,258,Wunderground v.1.15,2013-07-24 15:38:00,
2013-07-24 10:44:00,75.3,70.5,29.88,SE,134,2.0,7.0,85,0.00,,,0.00,276,Wunderground v.1.15,2013-07-24 15:44:00,
2013-07-24 10:50:00,75.6,70.1,29.88,SE,130,1.0,1.0,83,0.00,,,0.00,246,Wunderground v.1.15,2013-07-24 15:50:00,
2013-07-24 10:56:00,75.8,71.0,29.89,ESE,108,1.0,7.0,85,0.00,,,0.00,360,Wunderground v.1.15,2013-07-24 15:56:00,
2013-07-24 11:02:00,75.7,70.5,29.89,North,9,1.0,1.0,84,0.00,,,0.00,246,Wunderground v.1.15,2013-07-24 16:02:00,
2013-07-24 11:08:00,75.5,70.0,29.89,North,5,2.0,3.0,83,0.00,,,0.00,218,Wunderground v.1.15,2013-07-24 16:08:00,
2013-07-24 11:14:00,75.7,70.9,29.89,NNE,13,1.0,2.0,85,0.00,,,0.00,376,Wunderground v.1.15,2013-07-24 16:14:00,
2013-07-24 11:20:00,75.9,69.6,29.89,ESE,122,1.0,1.0,81,0.00,,,0.00,424,Wunderground v.1.15,2013-07-24 16:20:00,
2013-07-24 11:26:00,76.0,70.1,29.90,North,350,1.0,3.0,82,0.00,,,0.00,271,Wunderground v.1.15,2013-07-24 16:26:00,
2013-07-24 11:32:00,76.1,70.2,29.89,North,350,2.0,5.0,82,0.00,,,0.00,292,Wunderground v.1.15,2013-07-24 16:32:00,
2013-07-24 11:38:00,76.1,69.5,29.90,North,360,1.0,5.0,80,0.00,,,0.00,288,Wunderground v.1.15,2013-07-24 16:38:00,
2013-07-24 11:44:00,76.3,70.8,29.90,North,360,0.0,5.0,83,0.00,,,0.00,258,Wunderground v.1.15,2013-07-24 16:44:00,
2013-07-24 11:50:00,76.6,70.7,29.90,NNE,14,0.0,5.0,82,0.00,,,0.00,283,Wunderground v.1.15,2013-07-24 16:50:00,
2013-07-24 11:56:00,76.8,70.2,29.90,North,5,0.0,5.0,80,0.00,,,0.00,271,Wunderground v.1.15,2013-07-24 16:56:00,
2013-07-24 12:02:00,76.9,71.0,29.90,NNW,343,1.0,3.0,82,0.00,,,0.00,237,Wunderground v.1.15,2013-07-24 17:02:00,
2013-07-24 12:08:00,76.6,70.3,29.90,WNW,296,2.0,3.0,81,0.00,,,0.00,206,Wunderground v.1.15,2013-07-24 17:08:00,
2013-07-24 12:14:00,76.4,70.9,29.90,NNW,333,2.0,2.0,83,0.00,,,0.00,272,Wunderground v.1.15,2013-07-24 17:14:00,
2013-07-24 12:20:00,76.5,70.6,29.90,NW,326,3.0,3.0,82,0.00,,,0.00,325,Wunderground v.1.15,2013-07-24 17:20:00,
2013-07-24 12:26:00,76.8,70.5,29.89,NW,326,2.0,3.0,81,0.00,,,0.00,369,Wunderground v.1.15,2013-07-24 17:26:00,
2013-07-24 12:34:00,77.1,70.5,29.89,North,355,1.0,5.0,80,0.00,,,0.00,332,Wunderground v.1.15,2013-07-24 17:34:00,
2013-07-24 12:40:00,77.4,71.5,29.89,North,355,1.0,5.0,82,0.00,,,0.00,613,Wunderground v.1.15,2013-07-24 17:40:00,
2013-07-24 12:48:00,77.6,70.9,29.90,North,349,3.0,5.0,80,0.00,,,0.00,327,Wunderground v.1.15,2013-07-24 17:48:00,
2013-07-24 12:54:00,77.5,70.5,29.90,NNE,19,2.0,5.0,79,0.00,,,0.00,329,Wunderground v.1.15,2013-07-24 17:54:00,
2013-07-24 13:00:00,77.4,70.4,29.90,NNW,346,2.0,2.0,79,0.00,,,0.00,445,Wunderground v.1.15,2013-07-24 18:00:00,
2013-07-24 13:06:00,77.5,70.5,29.90,North,355,2.0,4.0,79,0.00,,,0.00,323,Wunderground v.1.15,2013-07-24 18:06:00,
2013-07-24 13:12:00,77.4,70.4,29.90,NNW,342,2.0,5.0,79,0.00,,,0.00,339,Wunderground v.1.15,2013-07-24 18:12:00,
2013-07-24 13:18:00,78.0,71.3,29.89,NNW,336,2.0,5.0,80,0.00,,,0.00,608,Wunderground v.1.15,2013-07-24 18:18:00,
2013-07-24 13:24:00,78.6,70.8,29.89,North,360,2.0,2.0,77,0.00,,,0.00,1048,Wunderground v.1.15,2013-07-24 18:24:00,
2013-07-24 13:30:00,79.1,71.3,29.90,NNW,338,2.0,2.0,77,0.00,,,0.00,276,Wunderground v.1.15,2013-07-24 18:30:00,
2013-07-24 13:36:00,79.3,71.8,29.89,NNW,348,2.0,6.0,78,0.00,,,0.00,323,Wunderground v.1.15,2013-07-24 18:36:00,
2013-07-24 13:42:00,79.4,71.2,29.89,North,350,1.0,6.0,76,0.00,,,0.00,255,Wunderground v.1.15,2013-07-24 18:42:00,
2013-07-24 13:48:00,80.1,71.8,29.89,NW,317,2.0,6.0,76,0.00,,,0.00,1014,Wunderground v.1.15,2013-07-24 18:48:00,
2013-07-24 13:54:00,80.5,71.4,29.89,North,355,2.0,6.0,74,0.00,,,0.00,1028,Wunderground v.1.15,2013-07-24 18:54:00,
2013-07-24 14:00:00,80.5,71.4,29.89,NW,319,2.0,2.0,74,0.00,,,0.00,204,Wunderground v.1.15,2013-07-24 19:00:00,
2013-07-24 14:06:00,79.9,70.9,29.89,North,355,2.0,4.0,74,0.00,,,0.00,976,Wunderground v.1.15,2013-07-24 19:06:00,
2013-07-24 14:12:00,79.6,70.6,29.89,NNW,346,2.0,8.0,74,0.00,,,0.00,204,Wunderground v.1.15,2013-07-24 19:12:00,
2013-07-24 14:18:00,80.2,71.9,29.88,North,350,3.0,8.0,76,0.00,,,0.00,993,Wunderground v.1.15,2013-07-24 19:18:00,
2013-07-24 14:24:00,80.4,69.7,29.89,North,355,4.0,7.0,70,0.00,,,0.00,942,Wunderground v.1.15,2013-07-24 19:24:00,
2013-07-24 14:30:00,81.1,71.2,29.88,NNW,329,3.0,4.0,72,0.00,,,0.00,963,Wunderground v.1.15,2013-07-24 19:30:00,
2013-07-24 14:36:00,81.0,69.4,29.89,NNW,340,3.0,7.0,68,0.00,,,0.00,207,Wunderground v.1.15,2013-07-24 19:36:00,
2013-07-24 14:42:00,80.7,70.0,29.88,NNW,339,2.0,7.0,70,0.00,,,0.00,926,Wunderground v.1.15,2013-07-24 19:42:00,
2013-07-24 14:50:00,81.2,70.5,29.88,NW,318,2.0,7.0,70,0.00,,,0.00,896,Wunderground v.1.15,2013-07-24 19:50:00,
2013-07-24 14:56:00,80.5,69.4,29.88,NNW,342,2.0,7.0,69,0.00,,,0.00,156,Wunderground v.1.15,2013-07-24 19:56:00,
2013-07-24 15:02:00,80.5,69.0,29.88,North,5,2.0,2.0,68,0.00,,,0.00,868,Wunderground v.1.15,2013-07-24 20:02:00,
2013-07-24 15:08:00,81.1,70.0,29.88,North,355,1.0,3.0,69,0.00,,,0.00,902,Wunderground v.1.15,2013-07-24 20:08:00,
2013-07-24 15:14:00,80.9,68.9,29.88,NNW,329,2.0,2.0,67,0.00,,,0.00,163,Wunderground v.1.15,2013-07-24 20:14:00,
2013-07-24 15:20:00,81.6,70.9,29.88,North,360,1.0,5.0,70,0.00,,,0.00,858,Wunderground v.1.15,2013-07-24 20:20:00,
2013-07-24 15:26:00,82.1,70.5,29.88,North,355,2.0,5.0,68,0.00,,,0.00,886,Wunderground v.1.15,2013-07-24 20:26:00,
2013-07-24 15:32:00,82.1,69.6,29.88,NW,319,3.0,8.0,66,0.00,,,0.00,877,Wunderground v.1.15,2013-07-24 20:32:00,
2013-07-24 15:38:00,81.8,69.3,29.88,NNW,338,1.0,8.0,66,0.00,,,0.00,123,Wunderground v.1.15,2013-07-24 20:38:00,
2013-07-24 15:44:00,80.6,69.1,29.88,North,349,2.0,8.0,68,0.00,,,0.00,817,Wunderground v.1.15,2013-07-24 20:44:00,
2013-07-24 15:50:00,80.9,69.3,29.88,NNW,329,3.0,3.0,68,0.00,,,0.00,816,Wunderground v.1.15,2013-07-24 20:50:00,
2013-07-24 15:56:00,81.1,68.2,29.88,NNW,330,3.0,8.0,65,0.00,,,0.00,387,Wunderground v.1.15,2013-07-24 20:56:00,
2013-07-24 16:02:00,81.0,68.1,29.88,North,355,4.0,6.0,65,0.00,,,0.00,805,Wunderground v.1.15,2013-07-24 21:02:00,
2013-07-24 16:08:00,80.6,66.4,29.88,North,355,4.0,6.0,62,0.00,,,0.00,724,Wunderground v.1.15,2013-07-24 21:08:00,
2013-07-24 16:14:00,80.6,67.3,29.88,NW,325,2.0,4.0,64,0.00,,,0.00,724,Wunderground v.1.15,2013-07-24 21:14:00,
2013-07-24 16:20:00,80.5,66.7,29.88,NNW,340,3.0,4.0,63,0.00,,,0.00,469,Wunderground v.1.15,2013-07-24 21:20:00,
2013-07-24 16:26:00,80.4,67.1,29.88,North,360,3.0,4.0,64,0.00,,,0.00,666,Wunderground v.1.15,2013-07-24 21:26:00,
2013-07-24 16:32:00,80.6,66.4,29.88,North,349,2.0,8.0,62,0.00,,,0.00,629,Wunderground v.1.15,2013-07-24 21:32:00,
2013-07-24 16:38:00,81.0,65.8,29.88,NW,317,3.0,8.0,60,0.00,,,0.00,617,Wunderground v.1.15,2013-07-24 21:38:00,
2013-07-24 16:44:00,81.1,66.4,29.88,NNW,341,3.0,8.0,61,0.00,,,0.00,504,Wunderground v.1.15,2013-07-24 21:44:00,
2013-07-24 16:50:00,81.0,67.2,29.88,North,355,2.0,8.0,63,0.00,,,0.00,573,Wunderground v.1.15,2013-07-24 21:50:00,
2013-07-24 16:56:00,81.2,66.9,29.88,North,10,2.0,8.0,62,0.00,,,0.00,580,Wunderground v.1.15,2013-07-24 21:56:00,
2013-07-24 17:02:00,80.9,65.2,29.87,NNW,328,4.0,5.0,59,0.00,,,0.00,564,Wunderground v.1.15,2013-07-24 22:02:00,
2013-07-24 17:08:00,80.9,65.7,29.88,NE,44,5.0,5.0,60,0.00,,,0.00,540,Wunderground v.1.15,2013-07-24 22:08:00,
2013-07-24 17:14:00,80.9,64.2,29.88,North,355,4.0,5.0,57,0.00,,,0.00,492,Wunderground v.1.15,2013-07-24 22:14:00,
2013-07-24 17:20:00,80.5,65.3,29.88,North,360,3.0,3.0,60,0.00,,,0.00,476,Wunderground v.1.15,2013-07-24 22:20:00,
2013-07-24 17:26:00,80.6,66.4,29.87,NNW,340,3.0,3.0,62,0.00,,,0.00,462,Wunderground v.1.15,2013-07-24 22:26:00,
2013-07-24 17:32:00,80.8,66.1,29.87,NNW,340,2.0,4.0,61,0.00,,,0.00,441,Wunderground v.1.15,2013-07-24 22:32:00,
2013-07-24 17:38:00,80.4,64.8,29.87,NNE,13,3.0,8.0,59,0.00,,,0.00,420,Wunderground v.1.15,2013-07-24 22:38:00,
2013-07-24 17:44:00,80.1,65.0,29.87,North,5,3.0,8.0,60,0.00,,,0.00,397,Wunderground v.1.15,2013-07-24 22:44:00,
2013-07-24 17:50:00,80.1,65.9,29.87,North,355,3.0,8.0,62,0.00,,,0.00,383,Wunderground v.1.15,2013-07-24 22:50:00,
2013-07-24 17:56:00,80.1,65.4,29.88,North,355,3.0,8.0,61,0.00,,,0.00,371,Wunderground v.1.15,2013-07-24 22:56:00,
2013-07-24 18:02:00,79.7,65.5,29.88,North,355,3.0,3.0,62,0.00,,,0.00,350,Wunderground v.1.15,2013-07-24 23:02:00,
2013-07-24 18:08:00,79.4,65.7,29.88,North,355,3.0,3.0,63,0.00,,,0.00,339,Wunderground v.1.15,2013-07-24 23:08:00,
2013-07-24 18:14:00,79.5,66.7,29.88,NNW,340,3.0,3.0,65,0.00,,,0.00,313,Wunderground v.1.15,2013-07-24 23:14:00,
2013-07-24 18:20:00,79.5,66.3,29.88,NNE,17,2.0,2.0,64,0.00,,,0.00,290,Wunderground v.1.15,2013-07-24 23:20:00,
2013-07-24 18:26:00,78.9,66.1,29.88,NNE,24,3.0,7.0,65,0.00,,,0.00,272,Wunderground v.1.15,2013-07-24 23:26:00,
2013-07-24 18:32:00,78.7,66.8,29.88,North,355,3.0,9.0,67,0.00,,,0.00,248,Wunderground v.1.15,2013-07-24 23:32:00,
2013-07-24 18:38:00,78.7,65.5,29.88,North,5,2.0,9.0,64,0.00,,,0.00,227,Wunderground v.1.15,2013-07-24 23:38:00,
2013-07-24 18:44:00,78.7,65.9,29.89,NNE,17,2.0,9.0,65,0.00,,,0.00,206,Wunderground v.1.15,2013-07-24 23:44:00,
2013-07-24 18:50:00,78.4,65.7,29.88,NNW,348,2.0,2.0,65,0.00,,,0.00,185,Wunderground v.1.15,2013-07-24 23:50:00,
2013-07-24 18:56:00,78.0,64.8,29.89,North,355,2.0,9.0,64,0.00,,,0.00,162,Wunderground v.1.15,2013-07-24 23:56:00,
2013-07-24 19:02:00,77.8,65.1,29.89,NNE,33,2.0,5.0,65,0.00,,,0.00,139,Wunderground v.1.15,2013-07-25 00:02:00,
2013-07-24 19:08:00,77.8,65.5,29.89,NNW,340,1.0,5.0,66,0.00,,,0.00,118,Wunderground v.1.15,2013-07-25 00:08:00,
2013-07-24 19:14:00,77.5,64.8,29.89,North,355,1.0,1.0,65,0.00,,,0.00,97,Wunderground v.1.15,2013-07-25 00:14:00,
2013-07-24 19:20:00,77.2,65.0,29.89,North,360,1.0,1.0,66,0.00,,,0.00,79,Wunderground v.1.15,2013-07-25 00:20:00,
2013-07-24 19:26:00,77.0,65.6,29.89,North,355,0.0,1.0,68,0.00,,,0.00,63,Wunderground v.1.15,2013-07-25 00:26:00,
2013-07-24 19:32:00,77.0,66.0,29.89,North,355,0.0,7.0,69,0.00,,,0.00,49,Wunderground v.1.15,2013-07-25 00:32:00,
2013-07-24 19:38:00,76.9,65.5,29.90,North,355,0.0,7.0,68,0.00,,,0.00,35,Wunderground v.1.15,2013-07-25 00:38:00,
2013-07-24 19:44:00,76.2,64.9,29.90,NNE,14,0.0,7.0,68,0.00,,,0.00,26,Wunderground v.1.15,2013-07-25 00:44:00,
2013-07-24 19:50:00,75.4,64.9,29.90,NNW,346,1.0,1.0,70,0.00,,,0.00,19,Wunderground v.1.15,2013-07-25 00:50:00,
2013-07-24 19:56:00,74.6,63.8,29.90,North,350,1.0,7.0,69,0.00,,,0.00,12,Wunderground v.1.15,2013-07-25 00:56:00,
2013-07-24 20:02:00,73.8,63.4,29.90,North,350,1.0,1.0,70,0.00,,,0.00,5,Wunderground v.1.15,2013-07-25 01:02:00,
2013-07-24 20:08:00,73.1,63.5,29.90,North,350,1.0,2.0,72,0.00,,,0.00,0,Wunderground v.1.15,2013-07-25 01:08:00,
2013-07-24 20:14:00,72.6,63.1,29.90,North,350,1.0,1.0,72,0.00,,,0.00,0,Wunderground v.1.15,2013-07-25 01:14:00,
2013-07-24 20:20:00,72.4,63.6,29.90,North,350,0.0,0.0,74,0.00,,,0.00,0,Wunderground v.1.15,2013-07-25 01:20:00,
2013-07-24 20:26:00,72.1,64.1,29.90,North,350,0.0,0.0,76,0.00,,,0.00,0,Wunderground v.1.15,2013-07-25 01:26:00,
2013-07-24 20:32:00,71.5,63.2,29.90,North,350,0.0,5.0,75,0.00,,,0.00,0,Wunderground v.1.15,2013-07-25 01:32:00,
2013-07-24 20:38:00,71.2,63.6,29.91,North,350,0.0,5.0,77,0.00,,,0.00,0,Wunderground v.1.15,2013-07-25 01:38:00,
2013-07-24 20:44:00,70.6,63.4,29.91,North,350,0.0,5.0,78,0.00,,,0.00,0,Wunderground v.1.15,2013-07-25 01:44:00,
2013-07-24 20:50:00,70.2,63.0,29.91,North,350,0.0,5.0,78,0.00,,,0.00,0,Wunderground v.1.15,2013-07-25 01:50:00,
2013-07-24 20:56:00,70.0,62.8,29.91,North,350,0.0,5.0,78,0.00,,,0.00,0,Wunderground v.1.15,2013-07-25 01:56:00,
2013-07-24 21:02:00,69.8,62.6,29.91,North,350,0.0,2.0,78,0.00,,,0.00,0,Wunderground v.1.15,2013-07-25 02:02:00,
2013-07-24 21:08:00,69.7,62.9,29.91,North,350,0.0,2.0,79,0.00,,,0.00,0,Wunderground v.1.15,2013-07-25 02:08:00,
2013-07-24 21:14:00,69.5,62.7,29.92,North,350,0.0,0.0,79,0.00,,,0.00,0,Wunderground v.1.15,2013-07-25 02:14:00,
2013-07-24 21:20:00,69.4,63.0,29.92,North,350,0.0,0.0,80,0.00,,,0.00,0,Wunderground v.1.15,2013-07-25 02:20:00,
2013-07-24 21:26:00,69.1,62.7,29.92,North,350,0.0,0.0,80,0.00,,,0.00,0,Wunderground v.1.15,2013-07-25 02:26:00,
2013-07-24 21:32:00,68.8,62.7,29.92,North,350,0.0,4.0,81,0.00,,,0.00,0,Wunderground v.1.15,2013-07-25 02:32:00,
2013-07-24 21:38:00,68.5,62.4,29.93,North,350,0.0,4.0,81,0.00,,,0.00,0,Wunderground v.1.15,2013-07-25 02:38:00,
2013-07-24 21:44:00,68.3,62.9,29.93,North,350,0.0,4.0,83,0.00,,,0.00,0,Wunderground v.1.15,2013-07-25 02:44:00,
2013-07-24 21:50:00,68.0,63.0,29.93,North,350,0.0,4.0,84,0.00,,,0.00,0,Wunderground v.1.15,2013-07-25 02:50:00,
2013-07-24 21:56:00,67.7,62.7,29.93,North,350,0.0,4.0,84,0.00,,,0.00,0,Wunderground v.1.15,2013-07-25 02:56:00,
2013-07-24 22:02:00,67.5,62.8,29.93,North,350,0.0,0.0,85,0.00,,,0.00,0,Wunderground v.1.15,2013-07-25 03:02:00,
2013-07-24 22:08:00,67.3,63.0,29.94,North,350,0.0,0.0,86,0.00,,,0.00,0,Wunderground v.1.15,2013-07-25 03:08:00,
2013-07-24 22:14:00,66.9,63.2,29.94,North,350,0.0,0.0,88,0.00,,,0.00,0,Wunderground v.1.15,2013-07-25 03:14:00,
2013-07-24 22:22:00,66.6,62.6,29.94,North,350,0.0,0.0,87,0.00,,,0.00,0,Wunderground v.1.15,2013-07-25 03:22:00,
2013-07-24 22:28:00,66.3,62.6,29.94,NNW,348,1.0,2.0,88,0.00,,,0.00,0,Wunderground v.1.15,2013-07-25 03:28:00,
2013-07-24 22:34:00,66.2,62.5,29.95,NNW,348,1.0,1.0,88,0.00,,,0.00,0,Wunderground v.1.15,2013-07-25 03:34:00,
2013-07-24 22:40:00,66.1,62.1,29.95,NNW,348,2.0,2.0,87,0.00,,,0.00,0,Wunderground v.1.15,2013-07-25 03:40:00,
2013-07-24 22:46:00,66.2,62.2,29.95,NNW,348,1.0,2.0,87,0.00,,,0.00,0,Wunderground v.1.15,2013-07-25 03:46:00,
2013-07-24 22:52:00,66.2,62.2,29.95,NNW,348,0.0,1.0,87,0.00,,,0.00,0,Wunderground v.1.15,2013-07-25 03:52:00,
2013-07-24 22:58:00,66.2,62.2,29.95,NNW,348,0.0,1.0,87,0.00,,,0.00,0,Wunderground v.1.15,2013-07-25 03:58:00,
2013-07-24 23:02:00,66.2,62.2,29.95,NNW,348,0.0,1.0,87,0.00,,,0.00,0,Wunderground v.1.15,2013-07-25 04:02:00,
2013-07-24 23:04:00,66.2,62.2,29.95,NNW,348,0.0,1.0,87,0.00,,,0.00,0,Wunderground v.1.15,2013-07-25 04:04:00,
2013-07-24 23:06:00,66.1,62.1,29.95,NNW,348,0.0,1.0,87,0.00,,,0.00,0,Wunderground v.1.15,2013-07-25 04:06:00,
2013-07-24 23:10:00,66.0,62.0,29.95,NNW,348,1.0,2.0,87,0.00,,,0.00,0,Wunderground v.1.15,2013-07-25 04:10:00,
2013-07-24 23:16:00,65.9,61.9,29.95,NNW,348,1.0,2.0,87,0.00,,,0.00,0,Wunderground v.1.15,2013-07-25 04:16:00,
2013-07-24 23:22:00,65.8,62.1,29.95,NNW,348,1.0,1.0,88,0.00,,,0.00,0,Wunderground v.1.15,2013-07-25 04:22:00,
2013-07-24 23:28:00,65.7,62.0,29.95,NNW,348,0.0,1.0,88,0.00,,,0.00,0,Wunderground v.1.15,2013-07-25 04:28:00,
2013-07-24 23:34:00,65.5,61.9,29.95,NNW,348,0.0,3.0,88,0.00,,,0.00,0,Wunderground v.1.15,2013-07-25 04:34:00,
2013-07-24 23:40:00,65.3,61.7,29.95,NNW,348,0.0,3.0,88,0.00,,,0.00,0,Wunderground v.1.15,2013-07-25 04:40:00,
2013-07-24 23:46:00,64.9,61.6,29.95,NNW,348,0.0,3.0,89,0.00,,,0.00,0,Wunderground v.1.15,2013-07-25 04:46:00,
2013-07-24 23:52:00,64.6,61.6,29.95,NNW,348,0.0,3.0,90,0.00,,,0.00,0,Wunderground v.1.15,2013-07-25 04:52:00,
2013-07-24 23:58:00,64.4,61.4,29.95,NNW,348,0.0,3.0,90,0.00,,,0.00,0,Wunderground v.1.15,2013-07-25 04:58:00,